Погода Котельниково

Погода Котельниково : погода сейчас, прогноз погоды и архив. Всё, что Вы хотите узнать о погоде Котельниково!

Поиск расширенной информации на нашем сайте:

Другие новости

Новости СМИ2

Главная страница сайта

Новости сайта

03.07.2017

Напоминаем, что на нашем специализированном сайте Метеоцентр.Азия вы можете получить высокодетализированные автоматические прогнозы погоды по пунктам России, СНГ и мира в авиационном формате (включающие направление и скорость ветра, видимость, явления погоды, количество и форму облачности, нижнюю и верхнюю границу облачности).


Погода Котельниково - сегодня

Время (UTC), дата Ветер
(°,м/с) 
Видим.   Явления Облачность Т
(°С)
Тd
(°С)
f(%) Тe
(°С)
Pmin
(гПа)
dP
(гПа)
Po
(мм)
O2
(г/м3)
Тmin Tmax R s Состояние
почвы
12 09.12.17 140 (ЮВ) 10 км    10/10 600 м 
[Sc]
+1.8 -3.3 69 1022.6  -0.6  762  306           
15 09.12.17 130 (ЮВ) 10 км    10/10 600 м 
[Sc]
+1.1 -2.2 79 -1  1022.4  -0.6  762  306    +2.2       
18 09.12.17 130 (ЮВ) 10 км    10/10 600 м 
[Sc]
+0.9 -1.5 84 -1  1022.1  -0.3  762  306           
21 09.12.17 160 (Ю) 10 км    10/10 600 м 
[Sc]
+1.2 -0.5 88 +1  1021.7  -0.4  762  306           
00 10.12.17 150 (ЮВ) 10 км    5/5 600 м 
[Sc]
+0.6 -0.7 91 1021.5  -0.3  761  306           
03 10.12.17 160 (Ю) 10 км    8/8 600 м 
[Sc]
+1.6 -0.3 87 +1  1021.3  0.1  761  305  -0.2         
06 10.12.17 100 (В) 10 км    3/3 600 м 
[Sc]
+2.5 -0.5 81 +2  1021.4  -0.1  761  304           
09 10.12.17 180 (Ю) 10 км    ясно 
+7.9 +1.2 63 +6  1020.9  -0.4  761  298           
12 10.12.17 160 (Ю) 6{11}  10 км    ясно 
+8.5 +0.2 56 +7  1019.7  -1.1  760  297           
15 10.12.17 110 (В) 10 км    ясно 
+3.1 -0.3 78 +2  1019.2  -0.6  760  303    +8.9       
18 10.12.17 140 (ЮВ) 5{10}  10 км    10/10 600 м 
[Sc]
+1.9 +1 94 -1  1018.9  -0.4  760  304           
21 10.12.17 120 (ЮВ) 5{10}  10 км    10/10 600 м 
[Sc]
+2.4 +1.1 91 1018.3  -0.5  759  303           
00 11.12.17 120 (ЮВ) 10 км    10/10 600 м 
[Sc]
+2.8 +1.5 91 1017.1  -1.2  758  302           
03 11.12.17 160 (Ю) 5{11}  10 км    10/10 600 м 
[Sc]
+3.6 +2.5 92 +1  1019.6  2.5  760  302  +1         
06 11.12.17 200 (Ю) 4000 м  слаб. ливневой дождь  10/10 300 м кучево-дожд. 
[Cb cap]
+4.1 +2.9 92 +2  1021.5  1.9  762  302           
09 11.12.17 260 (З) 6{10}  10 км  {ливн. осадки}  8/8 600 м 
[Sc]
+4.4 -1.3 66 +2  1024.2  2.7  764  303           
12 11.12.17 210 (ЮЗ) 4{10}  10 км    3/0 средняя 
[Ac trans]
+4.9 -1.5 63 +3  1024.6  0.4  764  303           
15 11.12.17 210 (ЮЗ) 10 км    ясно 
-0.1 -2.9 81 -2  1026.9  2.1  766  309    +5.2  0.8     
18 11.12.17 160 (Ю) 10 км    9/9 600 м 
[Sc]
-0.2 -2.3 86 -1  1027.2  0.3  766  309           
21 11.12.17 170 (Ю) 10 км    10/10 600 м 
[Sc]
+1.3 -1.8 80 1026.4  -0.8  765  307           
00 12.12.17 170 (Ю) 10 км    8/8 600 м 
[Sc]
+1.9 -1 81 1026.4  0.1  765  306           
03 12.12.17 180 (Ю) н/о    н/о 
+3.2 -0.2 78 +1  1025.5  -0.8  765  305  -1.6         
06 12.12.17 170 (Ю) 10 км  слаб. дождь  10/10 300 м 
[Frnb|Ns]
+3.8 +1.5 85 +1  1025  -0.5  764  303           
09 12.12.17 190 (Ю) 10 км  слаб. дождь  10/10 300 м 
[Frnb|Ns]
+5.7 +3.8 88 +4  1024.6  -0.3  764  301           
12 12.12.17 180 (Ю) 10 км  слаб. дождь  10/10 300 м 
[Frnb|Ns]
+6 +3.5 84 +4  1023.5  -1.1  763  300           
Время (UTC), дата Ветер
(°,м/с) 
Видим.   Явления Облачность Т
(°С)
Тd
(°С)
f(%) Тe
(°С)
Pmin
(гПа)
dP
(гПа)
Po
(мм)
O2
(г/м3)
Тmin Tmax R s Состояние
почвы

Для получения пояснительной информации подведите курсор к названию столбца.

ПОГОДА Котельниково - архив

Всё, что Вы хотите узнать о погоде Котельниково - удобно и подробно!

Выберите нужную дату (начиная с 1 января 2015* года) и нажмите кнопку "Найти".
Будут отображены архивные сводки погоды по пункту Котельниково, начиная с указанной даты.


Отображать данные в формате CSV (для использования в таблицах Excel)


Внимание! Наш архив погоды предназначен исключительно для личного некоммерческого использования в познавательных целях. Если Вам необходимы официальные справки о состоянии погоды (для производственных, юридических, коммерческих и т.п. целей), обращайтесь в органы Росгидромета.

*Примечание: данная дата относится к архиву по метеостанциям СССР (Россия, СНГ, Балтия).
Архив по метеостанциям Зарубежной Европы и Азии (кроме Китая) хранится 10 дней, по другим регионам земного шара (Китай, Африка, Америка, Австралия, Океания) - 1 день.

Котельниково - район местоположения метеостанции


Название, широта, долгота, высота метеостанции:
Котельниково 47.6°ш. 43.2°д. 49 м над ур. моря [Российская Федерация]

Дополнительная информация

В oтличие oт бoльшинства пoгoдных сайтoв мы публикуем пoдрoбную метеoинфoрмацию в детальнoм прoфессиoнальнoм фoрмате.

Характеристики температуры и влажнoсти вoздуха измеряются на высoте 2 м в тени вдали oт зданий и деревьев.
Скoрoсть ветра измеряется на высoте 10 м (на урoвне рoста челoвека скoрoсть ветра ниже в 1.5-2 раза). Если метеoстанция нахoдится в гoрoде или в лесу, тo скoрoсть ветра занижена на 2-4 м/с пo сравнению с oткрытым местoм. Скoрoсть ветра над акватoриями крупных рек и oзёр, а также на вершинах хoлмoв на 2-5 м/с выше, чем в oбычных услoвиях.
Атмoсфернoе давление в разных тoчках местнoсти мoжет значительнo oтличаться oт давления на метеoстанции, в зависимoсти oт услoвий рельефа (при пoдъёме на 10 м давление пoнижается примернo на 1 мм рт.ст.).